Regional Weather Roundup
Issued by NWS Wilmington, NC

Home | Current Version | Previous Version | Text Only | Print | Product List | Glossary On
Versions: 1 2 3 4 5 6 7 8 9 10 11 12 13 14 15 16 17 18 19 20 21 22 23 24 25 26 27 28 29 30 31 32 33 34 35 36 37 38 39 40 41 42 43 44 45 46 47 48 49 50
000
ASUS42 KILM 280713
RWRILM
RWRILM
REGIONAL HOURLY WEATHER ROUNDUP
NATIONAL WEATHER SERVICE WILMINGTON NC
300 AM EDT FRI APR 28 2017

NOTE: "FAIR" INDICATES FEW OR NO CLOUDS BELOW 12,000 FEET WITH NO
SIGNIFICANT WEATHER AND/OR OBSTRUCTIONS TO VISIBILITY.

...............WFO WILMINGTON COUNTY WARNING AREA...............

......COASTAL NC AND SC COUNTIES......

CITY           SKY/WX    TMP DP  RH WIND       PRES   REMARKS
WILMINGTON     CLOUDY    75  72  90 S9        29.98R
N MYRTLE BEACH CLOUDY    73  72  96 S13       29.97S
MYRTLE BEACH   CLOUDY    73  72  96 S10       29.99R

......INLAND NC AND SC COUNTIES.......

CITY           SKY/WX    TMP DP  RH WIND       PRES   REMARKS
LUMBERTON      CLOUDY    73  71  93 S7        29.95R
ELIZABETHTOWN  MOCLDY    74  72  92 S7        29.96S
WHITEVILLE     CLOUDY    74  71  89 S7        29.96S
FLORENCE       CLOUDY    73  69  87 S8        29.94S
DARLINGTON     CLOUDY    71  66  84 SW6       29.95S
KINGSTREE      MOCLDY    72  68  88 S6        29.96S
HARTSVILLE     CLOUDY    68  63  83 S3        29.94S
BENNETTSVILLE  MOCLDY    72  70  94 SE3       29.94S
CONWAY         CLOUDY    73  70  88 S9        29.97R
GEORGETOWN     CLOUDY    73  72  94 S10       29.99S
MARION         CLOUDY    72  70  94 S7        29.96S

....................REST OF NORTH CAROLINA......................

.........EASTERN NC.........

CITY           SKY/WX    TMP DP  RH WIND       PRES   REMARKS
CAPE HATTERAS  CLOUDY    73  69  87 SW12      29.99F FOG
JACKSONVILLE   CLOUDY    73  71  93 S9        29.97S
MOREHEAD CITY  PTCLDY    73  73 100 S9        29.98S
KENANSVILLE    CLOUDY    72  70  94 S3        29.96S
NEW BERN       CLOUDY    75  72  90 S12G22    29.98S
ELIZABETH CITY CLOUDY    72  68  87 S10       29.94F

.........CENTRAL NC.........

CITY           SKY/WX    TMP DP  RH WIND       PRES   REMARKS
RALEIGH DURHAM CLOUDY    72  65  78 SW12      29.94S
ROCKY MOUNT    CLOUDY    71  69  93 S6        29.94R
ROANOKE RAPIDS NOT AVBL
FAYETTEVILLE   CLOUDY    73  70  90 S6        29.94F
HOFFMAN        CLOUDY    70  66  87 S8        29.94R

.........WESTERN NC.........

CITY           SKY/WX    TMP DP  RH WIND       PRES   REMARKS
CHARLOTTE      CLOUDY    70  66  87 S5        29.94R
GREENSBORO     CLOUDY    66  66 100 SW3       29.93S FOG
HICKORY        NOT AVBL
BOONE          NOT AVBL
ASHEVILLE      NOT AVBL

.....................REST OF SOUTH CAROLINA.....................

.........EASTERN SC.........

CITY           SKY/WX    TMP DP  RH WIND       PRES   REMARKS
CHARLESTON     CLOUDY    75  71  87 SW12      29.97R
BEAUFORT MCAS  PTCLDY    74  74 100 SW3       29.97R
HILTON HEAD    CLOUDY    75  75 100 S8G15     29.98R

.........CENTRAL SC.........

CITY           SKY/WX    TMP DP  RH WIND       PRES   REMARKS
COLUMBIA       CLEAR     71  62  73 S6        29.93S
ORANGEBURG     CLOUDY    70  65  84 S7        29.95S
SUMTER SHAW    CLOUDY    73  65  75 S8        29.93R

.........WESTERN SC.........

CITY           SKY/WX    TMP DP  RH WIND       PRES   REMARKS
GREENVILLE     NOT AVBL
ROCK HILL      CLOUDY    69  67  93 SW5       29.95R
ANDERSON       CLOUDY    65  64  97 SE3       29.94S
CLEMSON        NOT AVBL
GREENWOOD      CLOUDY    64  63  96 CALM      29.96R FOG


...................COASTAL AND OFFSHORE REPORTS..................

................LOCAL PIERS AND NC RESERVE................


STATION/POSITION TIME  SKY/WX   TEMP    WIND        PRES    VSBY
                                AIR SEA DIR/SP/G
                 (UTC)          (F)     (DEG/KT/KT) (MB)    (MI)
JOHNY MRCER PIER 0648            72 72  220/ 11/ 12 1014.3R
NC RESRV MASNBRO 0545            72     240/  6     1015.0
OCEAN CREST PIER NOT AVBL
SPRINGMAID  PIER 0648                               1014.5R


................COASTAL AND OFFSHORE BUOYS................


STATION/POSITION TIME  SKY/WX   TEMP    WIND        PRES    VSBY
                                AIR SEA DIR/SP/G
                 (UTC)          (F)     (DEG/KT/KT) (MB)    (MI)
DIMNDSHOAL 41025 0650            77 77  200/ 19/ 23 1015.6F
WVE H/P(F/S)=  6/ 8 SWL H/P/D(F/S/D)=  2/ 90/11

CAPE LOOKOUT     0700            73     190/ 13/ 15 1015.1R
ONSLOW BAY 41036 NOT AVBL
ONSLOW BAY 41064 0608            73     190/ 14/ 17 1015.3F
ONSLOW BAY 41159 0643               72                N/A
WVE H/P(F/S)=  5/ 8 SWL H/P/D(F/S/D)=  2/100/12

MASNBO INL 41110 0659               71                N/A
WVE H/P(F/S)=  3/ 8

WILM HARBR 41108 0647               71                N/A
WVE H/P(F/S)=  4/ 6

27SE WRITB 41037 0608            74 72  170/ 12/ 17 1014.4F
FRYING PAN 41013 0700            75 72  180/ 12/ 14 1015.1
SUNST NRSH 41024 0608            72 71  200/ 10/ 14 1014.8R
CAPRS NRSH 41029 0608            74 73  210/ 10/ 14 1014.7R
EDISTO     41004 0650            75 74  200/ 12/ 16 1015.0R
WVE H/P(F/S)=  5/ 8 SWL H/P/D(F/S/D)=  3/130/ 8



..........OFFSHORE BUOYS BEYOND 100 NM OFFSHORE...........
.....IN A TRIANGLE---HAT TO BERMUDA TO BAHAMAS TO HAT.....


STATION/POSITION TIME  SKY/WX   TEMP    WIND        PRES    VSBY
                                AIR SEA DIR/SP/G
                 (UTC)          (F)     (DEG/KT/KT) (MB)    (MI)
150E HAT   41001 0700            72 71  200/ 12/ 16 1019.0
W BERMUDA  41048 0700            71 71  170/  8/ 10 1021.3
ATLANTIC S 41049 0650            72 72  100/ 12/ 14 1022.4F
WVE H/P(F/S)=  4/11 SWL H/P/D(F/S/D)=  3/ 40/11

E BAHAMAS  41046 0700            77 78  100/ 12/ 16 1018.5
NE BAHAMAS 41047 0700            75 76  120/ 12/ 16 1019.9
120E CANVRL41010 0700            78 78  150/ 16/ 17 1016.1

END



USA.gov is the U.S. government's official web portal to all federal, state and local government web resources and services.